Preview of NWS' New Version of Forecast
This preview is not operational and should not be used for support decisions.

Regional Weather Roundup (RWR)

Issued by National Weather Service (NWS)

                            
000
ASUS46 KSEW 251810
RWRWA 

WASHINGTON REGIONAL WEATHER ROUNDUP
NATIONAL WEATHER SERVICE SEATTLE WA
1100 AM PDT TUE JUN 25 2019

NOTE:"FAIR" INDICATES FEW OR NO CLOUDS BELOW 12,000 FEET WITH NO 
SIGNIFICANT WEATHER AND/OR OBSTRUCTIONS TO VISIBILITY.

WAZ507-509-555>559-251900-
SEATTLE, TACOMA, EVERETT, AND VICINITY
  
CITY           SKY/WX    TMP DP  RH WIND       PRES   REMARKS
EVERETT        MOSUNNY   63  49  60 W6        29.90S                  
6HR MIN TEMP:  49; 6HR MAX TEMP:  63;                                

BOEING FIELD   PTSUNNY   64  48  56 VRB5      29.89F                  
6HR MIN TEMP:  53; 6HR MAX TEMP:  65;                                

RENTON         MOSUNNY   65  49  56 CALM      29.88F                  
6HR MIN TEMP:  50; 6HR MAX TEMP:  65;                                

SEATAC AIRPORT PTSUNNY   65  48  54 W6        29.90S                  
6HR MIN TEMP:  51; 6HR MAX TEMP:  65;                                

JBLM-MCCHORD   MOSUNNY   65  54  67 NW5       29.89F                  
6HR MIN TEMP:  42; 6HR MAX TEMP:  65;                                

PUYALLUP       FAIR      68  46  45 CALM      29.89F                  
BREMERTON      MOSUNNY   67  49  52 VRB5      29.89F                  
6HR MIN TEMP:  40; 6HR MAX TEMP:  67;                                

JBLM-FT LEWIS  NOT AVBL                                               
TACOMA NARROWS MOSUNNY   60  48  64 VRB5      29.90S                  
6HR MIN TEMP:  48; 6HR MAX TEMP:  61;                                

$$
 
WAZ001-503-506-510-514-515-251900-
NORTH INTERIOR
  
CITY           SKY/WX    TMP DP  RH WIND       PRES   REMARKS
BELLINGHAM     SUNNY     66  50  56 CALM      29.88F                  
6HR MIN TEMP:  46; 6HR MAX TEMP:  66;                                

FRIDAY HARBOR  SUNNY     61  51  70 SE6       29.90S                  
6HR MIN TEMP:  44; 6HR MAX TEMP:  64;                                

EASTSOUND      SUNNY     61  50  67 N6        29.89R                  
PORT ANGELES   SUNNY     61  45  55 VRB5      29.90S                  
6HR MIN TEMP:  41; 6HR MAX TEMP:  61;                                

EDIZ HOOK      FAIR      57  49  75 S3        29.90S                  
6HR MIN TEMP:  49; 6HR MAX TEMP:  57;                                

PORT TOWNSEND  FAIR      63  48  59 SE3       29.89R                  
NAS WHIDBEY    NOT AVBL                                               
ARLINGTON      MOSUNNY   65  50  58 VRB3      29.89S                  
6HR MIN TEMP:  42; 6HR MAX TEMP:  67;                                

BURLINGTON     SUNNY     73  52  46 CALM      29.89S                  
$$
 
WAZ020-022-039-040-504-511-512-251900-
SOUTHWEST INTERIOR
  
CITY           SKY/WX    TMP DP  RH WIND       PRES   REMARKS
SHELTON        SUNNY     68  47  46 E5        29.86F                  
6HR MIN TEMP:  40; 6HR MAX TEMP:  68;                                

OLYMPIA        SUNNY     66  47  50 VRB3      29.89S                  
6HR MIN TEMP:  43; 6HR MAX TEMP:  66;                                

CHEHALIS       FAIR      68  50  52 CALM      29.89F                  
KELSO          CLOUDY    63  50  62 CALM      29.90F                  
6HR MIN TEMP:  47; 6HR MAX TEMP:  64;                                

VANCOUVER      CLOUDY    63  50  62 W6        29.89F                  
6HR MIN TEMP:  52; 6HR MAX TEMP:  63; 6HR PCP: TRACE;                

SCAPPOOSE, OR  LGT RAIN  61  53  75 CALM      29.89S                  
6HR MIN TEMP:  47; 6HR MAX TEMP:  62; 6HR PCP:  0.01;                

PORTLAND, OR   PTSUNNY   65  50  58 VRB5      29.90S                  
6HR MIN TEMP:  55; 6HR MAX TEMP:  65; 6HR PCP:  0.01;                

$$
 
WAZ021-516-517-251900-
WASHINGTON COAST
  
CITY           SKY/WX    TMP DP  RH WIND       PRES   REMARKS
FORKS          MOSUNNY   63  47  55 VRB6      29.89S                  
6HR MIN TEMP:  42; 6HR MAX TEMP:  63;                                

HOQUIAM        CLOUDY    60  51  72 W9        29.91R                  
6HR MIN TEMP:  46; 6HR MAX TEMP:  61; 6HR PCP: TRACE;                

ASTORIA, OR    PTSUNNY   63  50  62 W8        29.90S                  
6HR MIN TEMP:  49; 6HR MAX TEMP:  63;                                

$$
 
WAZ019-023-024-040-567>569-251900-
CASCADE MOUNTAINS AND COLUMBIA GORGE
  
CITY           SKY/WX    TMP DP  RH WIND       PRES   REMARKS
STAMPEDE PASS  MOSUNNY   56  39  53 VRB5      29.89F                  
6HR MIN TEMP:  41; 6HR MAX TEMP:  56;                                

TROUTDALE, OR  CLOUDY    64  51  62 VRB5      29.89S                  
6HR MIN TEMP:  53; 6HR MAX TEMP:  65;                                

HOOD RIVER, OR PTCLDY    70  45  40 NW10G17   29.84F                  
THE DALLES, OR SUNNY     72  47  40 NW14      29.81F                  
6HR MIN TEMP:  52; 6HR MAX TEMP:  73;                                

$$

WAZ026-027-041>044-520-521-251900-
EAST SLOPES
  
CITY           SKY/WX    TMP DP  RH WIND       PRES   REMARKS
OMAK           SUNNY     73  44  35 N9        29.84F                  
6HR MIN TEMP:  52; 6HR MAX TEMP:  73;                                

WENATCHEE      MOSUNNY   65  40  39 SW9       29.83F                  
6HR MIN TEMP:  53; 6HR MAX TEMP:  65;                                

ELLENSBURG     MOSUNNY   70  39  32 VRB6      29.83F                  
6HR MIN TEMP:  44; 6HR MAX TEMP:  71;                                

YAKIMA         MOSUNNY   71  38  29 VRB3      29.83S                  
6HR MIN TEMP:  51; 6HR MAX TEMP:  71;                                

SUNNYSIDE ARPT CLEAR     69  45  42 CALM      29.83                   
6HR MIN TEMP:  47; 6HR MAX TEMP:  70;                                

YAKIMA TC      FAIR      69  37  30 CALM      29.81F                  
6HR MIN TEMP:  52; 6HR MAX TEMP:  70;                                

$$

WAZ028-034-035-251900-
COLUMBIA BASIN
  
CITY           SKY/WX    TMP DP  RH WIND       PRES   REMARKS
EPHRATA        MOSUNNY   68  40  35 MISG      29.83F                  
6HR MIN TEMP:  51; 6HR MAX TEMP:  68;                                

MOSES LAKE     MOSUNNY   70  45  40 S8        29.84S                  
6HR MIN TEMP:  48; 6HR MAX TEMP:  70;                                

PASCO          SUNNY     74  42  31 VRB6      29.83F                  
6HR MIN TEMP:  60; 6HR MAX TEMP:  74;                                

RICHLAND ARPT  CLEAR     73  42  32 CALM      29.82F                  
6HR MIN TEMP:  56; 6HR MAX TEMP:  73;                                

HERMISTON, OR  SUNNY     74  39  28 W8        29.82F                  
6HR MIN TEMP:  57; 6HR MAX TEMP:  75;                                

$$

WAZ036>038-251900-
NORTHEAST WASHINGTON
  
CITY           SKY/WX    TMP DP  RH WIND       PRES   REMARKS
SPOKANE GEIGER PTSUNNY   67  39  35 E6        29.88S                  
6HR MIN TEMP:  50; 6HR MAX TEMP:  67;                                

SPOKANE FELTS  MOSUNNY   68  42  38 SE3       29.88S                  
6HR MIN TEMP:  48; 6HR MAX TEMP:  68;                                

FAIRCHILD AFB  MOSUNNY   66  39  37 SE3       29.88S                  
6HR MIN TEMP:  45; 6HR MAX TEMP:  66;                                

COEURDALENE,ID PTSUNNY   64  43  46 CALM      29.89S                  
6HR MIN TEMP:  45; 6HR MAX TEMP:  65;                                

DEER PARK      MOSUNNY   66  45  46 VRB3      29.88S                  
6HR MIN TEMP:  43; 6HR MAX TEMP:  66;                                

$$

WAZ029>033-251900-
SOUTHEAST WASHINGTON
  
CITY           SKY/WX    TMP DP  RH WIND       PRES   REMARKS
PULLMAN        PTSUNNY   66  38  35 NE6       29.90F                  
6HR MIN TEMP:  41; 6HR MAX TEMP:  66;                                

LEWISTON, ID   MOSUNNY   64  45  49 E5        29.87F                  
6HR MIN TEMP:  51; 6HR MAX TEMP:  64;                                

WALLA WALLA    SUNNY    N/A N/A N/A MISG      29.84F                  
PENDLETON, OR  SUNNY     72  35  25 W10       29.84F                  
6HR MIN TEMP:  49; 6HR MAX TEMP:  73;                                

$$